DW5623 Weather Reports


time (UTC)temp
C
wind
direction
speed
KPH
gust
KPH
rain 1hr
cm
rain 24hr
cm
rain mn
cm
humidity
%
barometer
mb
20260502200047 20 0 0.0 1.6 0.00 0.00 0.00 47 1016.1
20260502194541 20 0 0.0 3.2 0.00 0.00 0.00 46 1016.0
20260502193049 21 0 1.6 4.8 0.00 0.00 0.00 45 1016.0
20260502191546 21 0 0.0 3.2 0.00 0.00 0.00 44 1016.0
20260502190048 22 0 1.6 4.8 0.00 0.00 0.00 41 1016.0
20260502184555 23 0 0.0 3.2 0.00 0.00 0.00 40 1015.8
20260502183045 24 231 0.0 3.2 0.00 0.00 0.00 38 1015.8
20260502181544 25 5 0.0 3.2 0.00 0.00 0.00 36 1015.6
20260502163045 26 225 1.6 8.0 0.00 0.00 0.00 33 1015.7
20260502161543 26 338 3.2 12.9 0.00 0.00 0.00 33 1016.0
20260502151546 26 0 1.6 9.7 0.00 0.00 0.00 32 1016.6
20260502123048 25 344 1.6 6.4 0.00 0.00 0.00 38 1018.8
20260502121550 23 206 1.6 8.0 0.00 0.00 0.00 41 1019.1
20260502114548 23 82 1.6 4.8 0.00 0.00 0.00 44 1019.6
20260502113045 23 23 1.6 8.0 0.00 0.00 0.00 43 1019.8
20260502111554 22 175 1.6 8.0 0.00 0.00 0.00 45 1020.0
20260502110045 22 194 1.6 8.0 0.00 0.00 0.00 47 1020.2
20260502104543 22 54 3.2 9.7 0.00 0.00 0.00 49 1020.4
20260502103058 22 0 1.6 6.4 0.00 0.00 0.00 49 1020.7
20260502101555 21 24 1.6 6.4 0.00 0.00 0.00 51 1021.0
20260502070044 14 0 0.0 0.0 0.00 0.00 0.00 61 1022.5
20260502064543 13 0 0.0 0.0 0.00 0.00 0.00 63 1022.6
20260502063046 12 0 0.0 0.0 0.00 0.00 0.00 65 1022.6
20260502061547 12 0 0.0 0.0 0.00 0.00 0.00 66 1022.6
20260502060047 11 0 0.0 0.0 0.00 0.00 0.00 67 1022.6
20260502054545 11 0 0.0 0.0 0.00 0.00 0.00 68 1022.5
20260502053042 11 0 0.0 0.0 0.00 0.00 0.00 68 1022.6
20260502051542 10 0 0.0 0.0 0.00 0.00 0.00 70 1022.6
20260502050042 10 0 0.0 0.0 0.00 0.00 0.00 71 1022.4
20260502044548 10 0 0.0 0.0 0.00 0.00 0.00 72 1022.4
20260502043045 10 0 0.0 0.0 0.00 0.00 0.00 71 1022.3
20260502041543 10 0 0.0 0.0 0.00 0.00 0.00 71 1022.3
20260502040044 10 0 0.0 0.0 0.00 0.00 0.00 69 1022.2
20260502034539 11 0 0.0 0.0 0.00 0.00 0.00 68 1022.2
20260502033048 11 0 0.0 0.0 0.00 0.00 0.00 67 1022.2
20260502031544 11 0 0.0 0.0 0.00 0.00 0.00 67 1022.2
20260502030043 11 0 0.0 0.0 0.00 0.00 0.00 66 1022.3
20260502024541 11 0 0.0 0.0 0.00 0.00 0.00 65 1022.3
20260502023047 11 0 0.0 0.0 0.00 0.00 0.00 65 1022.2
20260502021547 11 0 0.0 0.0 0.00 0.00 0.00 64 1022.2
20260502020045 12 0 0.0 0.0 0.00 0.00 0.00 62 1022.1
20260502014547 12 0 0.0 0.0 0.00 0.00 0.00 61 1022.2
20260502013047 12 0 0.0 0.0 0.00 0.00 0.00 61 1022.1
20260502011548 12 0 0.0 0.0 0.00 0.00 0.00 59 1022.2
20260502010052 12 0 0.0 0.0 0.00 0.00 0.00 58 1022.2
20260502004602 13 0 0.0 0.0 0.00 0.00 0.00 58 1022.2
20260502003042 13 0 0.0 0.0 0.00 0.00 0.00 57 1022.2
20260502001541 13 0 0.0 0.0 0.00 0.00 0.00 56 1022.2
20260502000052 13 0 0.0 0.0 0.00 0.00 0.00 55 1022.3
20260501234540 13 0 0.0 0.0 0.00 0.00 0.00 54 1022.4
20260501233047 13 0 0.0 0.0 0.00 0.00 0.00 53 1022.3
20260501231544 13 0 0.0 0.0 0.00 0.00 0.00 53 1022.2
20260501230043 14 0 0.0 0.0 0.00 0.00 0.00 53 1022.3
20260501224543 14 0 0.0 0.0 0.00 0.00 0.00 52 1022.2
20260501223049 15 0 0.0 0.0 0.00 0.00 0.00 51 1022.2
20260501221547 15 0 0.0 0.0 0.00 0.00 0.00 51 1022.2
20260501220052 15 0 0.0 0.0 0.00 0.00 0.00 51 1022.2
20260501214543 15 98 0.0 1.6 0.00 0.00 0.00 49 1022.2
20260501213059 16 0 0.0 3.2 0.00 0.00 0.00 47 1022.1
20260501211541 16 0 0.0 1.6 0.00 0.00 0.00 44 1022.1
20260501210048 16 0 0.0 3.2 0.00 0.00 0.00 42 1022.1
20260501204550 17 0 0.0 1.6 0.00 0.00 0.00 41 1022.1
20260501203046 17 0 0.0 1.6 0.00 0.00 0.00 40 1022.1
20260501201544 17 0 0.0 1.6 0.00 0.00 0.00 39 1022.1